Home   Weather   Bruck an der Leitha   Past weeks

Flag for Austria Past Weather in Bruck an der Leitha, Lower Austria, Austria — Yesterday and Last 2 Weeks

Now
46 °F

Light rain. Overcast.


Feels Like: 42 °F
Forecast: 42 / 55 °F
Wind: 8 mph from West

Location: Wien / Schwechat-Flughafen

Current Time: Feb 21, 2017 at 4:33:17 am

Latest Report: Feb 21, 2017 at 3:00 am


Visibility: 6 mi

Pressure: 29.96 "Hg

Humidity: 83%

Dew Point: 41 °F

Location of Bruck an der LeithaLocation

Past Weather in Bruck an der Leitha — Graph

°F

Bruck an der Leitha Temperature Yesterday

Maximum temperature yesterday: 49 °F (at 3:00 pm)
Minimum temperature yesterday: 25 °F (at 4:00 am)
Average temperature yesterday: 37 °F

High & Low Weather Summary for the Past Weeks

 TemperatureHumidityPressure
High49 °F (Feb 20, 3:00 pm)100% (Feb 6, 6:00 am)30.65 "Hg (Feb 6, 6:00 am)
Low23 °F (Feb 15, 5:00 am)52% (Feb 15, 4:00 pm)29.72 "Hg (Feb 6, 3:00 am)
Average33 °F84%30.35 "Hg
* Reported Feb 6 3:00 am — Feb 21 3:00 am, Bruck an der Leitha, Weather by CustomWeather, © 2017

Note: Actual official high and low records may vary slightly from our data, if they occured in-between our weather recording intervals... More about our weather records

Advertising

Bruck an der Leitha Weather History for the Previous 24 Hours

Scroll right to see more
 ConditionsComfort  
Time TempWeatherWind HumidityBarometerVisibility
3:00 am
Tue, Feb 21
46 °FLight rain. Overcast.8 mph83%29.96 "Hg6 mi
2:00 am45 °FLight rain. Overcast.7 mph81%29.98 "Hg6 mi
1:00 am45 °FLight rain. Overcast.8 mph77%29.99 "Hg19 mi
12:00 am44 °FLight rain. Overcast.6 mph70%30.02 "Hg16 mi
11:00 pm
Mon, Feb 20
40 °FOvercast.6 mph72%30.03 "Hg11 mi
10:00 pm38 °FOvercast.6 mph76%30.06 "Hg9 mi
9:00 pm39 °FOvercast.6 mph79%30.08 "Hg9 mi
8:00 pm37 °FOvercast.5 mph86%30.09 "Hg7 mi
7:00 pm40 °FPassing clouds.N/A77%30.11 "Hg11 mi
6:00 pm44 °FPassing clouds.N/A72%30.11 "Hg11 mi
5:00 pm46 °FPassing clouds.5 mph69%30.12 "Hg10 mi
4:00 pm48 °FPassing clouds.7 mph65%30.13 "Hg13 mi
3:00 pm49 °FScattered clouds.8 mph64%30.15 "Hg10 mi
2:00 pm48 °FPartly sunny.9 mph67%30.16 "Hg11 mi
1:00 pm46 °FPartly sunny.8 mph72%30.18 "Hg9 mi
12:00 pm44 °FOvercast.9 mph74%30.20 "Hg9 mi
11:00 am44 °FOvercast.6 mph77%30.21 "Hg4 mi
10:00 am41 °FOvercast.5 mph82%30.22 "Hg4 mi
9:00 am34 °FOvercast.N/A95%30.23 "Hg4 mi
8:00 am35 °FOvercast.N/A91%30.22 "Hg4 mi
7:00 am28 °FOvercast.N/A99%30.22 "Hg2 mi
6:00 am26 °FPassing clouds.N/A98%30.22 "Hg2 mi
5:00 am26 °FPassing clouds.N/A99%N/A0 mi
4:00 am25 °FIcy mix. Low clouds.3 mph100%30.22 "Hg0 mi
Weather by CustomWeather, © 2017

See weather overviewHow to use our weather pages